Lid_Strength_Index
8 8 8 8 8 8 9 9 11 9 9 7 6 6 5 5 5 5 4 4 4 3 3 2 2 2 2 1 1 1 1 1 1 1 1 1 1 1 1 1 1 1 1 0
9 8 8 9 8 8 8 8 8 8 9 5 5 5 5 5 5 5 4 4 3 3 3 3 2 2 2 2 1 1 1 2 1 1 1 1 1 1 1 1 1 1 1 1
12 8 9 11 9 8 8 7 7 9 7 5 6 5 5 5 5 5 4 4 3 3 3 2 2 2 2 2 1 1 1 1 1 1 1 1 1 1 1 1 1 1 1 1
12 10 15 8 6 6 7 7 6 6 6 5 5 4 4 4 4 4 4 3 3 3 3 2 2 2 1 1 1 1 1 1 1 1 1 1 1 1 1 1 1 1 1 1
13 13 10 8 7 7 8 8 6 6 6 5 4 4 4 3 3 3 3 3 3 2 2 2 2 1 1 2 1 1 2 1 1 1 1 1 2 2 1 1 1 1 1 1
12 14 15 9 6 5 5 10 5 5 5 5 5 7 6 3 3 3 3 2 3 2 2 2 2 1 2 2 2 2 1 1 1 1 1 1 1 1 1 1 1 1 1 1
12 13 10 6 5 5 11 9 5 5 5 5 6 5 4 3 3 3 3 2 2 2 2 2 2 2 2 2 2 1 1 1 1 1 1 1 1 1 1 1 1 1 1 1
11 13 13 5 6 8 6 4 4 5 4 5 4 4 3 3 3 3 3 2 2 3 3 2 1 2 2 2 1 1 1 1 1 1 1 1 1 1 1 1 2 2 2 2
10 10 5 5 5 5 4 5 4 4 4 4 4 4 3 3 3 3 2 3 2 2 2 2 2 2 2 2 1 1 1 1 1 1 1 1 1 2 2 2 2 2 2 2
10 7 6 5 4 4 3 4 3 3 3 3 4 3 3 3 3 3 2 3 2 2 3 3 2 2 1 1 1 1 1 1 1 1 1 1 1 1 2 2 2 2 2 2
9 7 6 5 5 4 4 3 3 3 3 3 3 3 3 3 3 3 2 2 2 2 3 3 2 2 1 1 1 2 2 1 2 1 1 2 1 1 1 1 1 2 2 1
10 7 8 6 5 5 4 4 4 3 3 3 3 3 3 3 3 2 3 2 2 2 2 2 2 2 1 1 1 1 2 2 2 2 1 1 2 2 8 7 7 8 8 3
8 6 6 6 4 4 5 4 4 5 3 3 3 3 3 3 2 3 2 2 2 2 2 2 2 2 1 1 1 1 2 2 2 2 2 2 2 2 2 5 9 9 8 8
7 8 7 6 5 4 4 3 4 4 4 3 3 2 2 3 3 3 2 2 2 2 2 2 2 2 1 1 1 1 1 6 2 1 2 2 2 2 2 2 2 2 7 6
7 7 6 5 4 4 3 3 4 5 4 3 3 3 2 3 3 2 2 1 1 2 2 2 2 2 1 1 1 1 2 2 1 1 1 2 1 1 1 2 2 2 3 6
7 7 7 7 5 5 4 4 4 4 3 3 3 3 2 2 2 2 2 1 2 2 2 2 2 1 1 1 1 1 1 5 3 1 1 1 2 2 2 2 2 2 2 4
8 7 7 6 5 5 5 5 4 4 4 3 3 2 2 2 2 2 2 1 1 2 1 1 1 1 1 1 1 1 1 1 5 2 2 2 2 2 2 2 3 2 3 4
5 5 5 5 5 5 5 5 5 4 3 3 3 3 2 2 3 2 2 2 2 1 1 2 1 1 1 1 1 1 1 1 2 2 2 2 2 2 2 2 2 3 3 6
5 5 5 5 5 5 5 4 4 3 3 3 2 3 3 2 2 2 2 2 2 3 2 1 7 3 1 2 2 1 1 2 2 2 2 5 2 2 2 2 2 2 3 7
4 4 4 4 4 4 4 3 3 3 2 2 2 3 3 2 2 2 2 3 2 2 1 1 1 1 1 1 6 1 1 1 2 2 2 2 2 2 2 5 2 2 4 5
3 3 4 4 4 3 3 2 3 3 3 2 3 3 3 2 2 2 3 3 2 2 2 6 2 1 1 2 2 1 1 1 2 2 2 2 2 2 2 2 2 2 3 4
4 4 4 3 3 3 2 2 2 2 3 3 3 3 3 3 2 2 2 2 2 13 2 1 1 12 5 11 1 1 1 1 2 2 2 2 2 2 2 2 2 2 2 4
4 4 4 4 4 3 3 3 3 2 3 3 3 3 4 4 3 3 4 2 2 7 1 2 13 14 13 2 1 1 1 1 2 2 2 2 2 2 2 2 2 3 4 4
5 4 4 3 4 4 5 4 3 3 3 3 3 3 3 4 3 3 3 8 11 7 3 4 8 13 16 1 1 1 1 1 1 2 3 6 2 2 2 3 4 4 6 7
6 5 5 5 5 4 4 4 4 3 3 3 3 2 2 2 3 2 2 3 11 5 2 11 11 12 4 1 1 1 1 1 1 1 2 2 3 3 4 5 6 7 8 8
5 5 5 5 4 4 4 3 4 3 3 4 3 2 2 2 2 2 2 4 1 6 1 1 1 1 1 1 1 1 1 2 2 1 2 2 3 4 6 6 8 8 8 9
4 5 4 4 4 4 4 5 5 5 4 3 4 3 2 2 3 3 5 2 1 1 1 1 1 3 1 1 1 1 1 1 4 1 2 2 4 3 5 7 7 8 8 9